STARLINK-1869 (47155 NORAD) Tracking and Keplerian Element Data

This shows tracking and keplerian element data for the satellite.

Feedback or suggestion? Click here.




ElementValue
Catalog47155
NameSTARLINK-1869
Epoch Orbit176
Epoch Day62.91667824
Epoch Year2021
RAAN254.7745
Inclination53.0541
Eccentricity0.0002617
Argument of Perigee100.132
Mean Anonmoly302.9318
Mean Motion15.06371891
Decay Rate0.00010716
L11 47155U 20088AK 21062.91667824 .00010716 00000-0 73777-3 0 9993
L22 47155 53.0541 254.7745 0002617 100.1320 302.9318 15.06371891 1760

Live tracking and technical data element details for STARLINK-1869 (NORAD 47155). STARLINK-1869 can be tracked NOW for your location showing map with azimuth and elevation plus other details from your city location.

Track the satellite on the map from your city or location and see movement details for azimuth, elevation, latitude, longitude, range, height, and movement on the map or in text.







IsCatalogInMostPopularTable: catalog: 47155, numindb: 39
Update: records affected: 1



GetName: 47155 STARLINK-1869

Hit Count: updated at: Fri, 05 Mar 2021 06:22:34 GMT